This demonstration page uses our WeatherBlox Daily Observations layout. Learn more.

Left ArrowRight Arrow

44.8408, -93.29828

Hourly Observations for July 26, 2022

Temp ( °F °C ) Dew Point ( °F °C ) Humidity (%) Winds ( mph kmh ) Pressure ( in mb ) Visibility ( mi km ) Precip ( " mm )
12:53 am 00:53 Mostly Cloudy 68 20 60 15.6 76 76 SW 7 11 29.98 1015 10 16 0.00 0.00
1:53 am 01:53 Mostly Cloudy 67 19.4 61 16.1 81 81 SW 7 11 29.98 1015 10 16 0.00 0.00
2:53 am 02:53 Mostly Cloudy 67 19.4 60 15.6 79 79 SSW 5 7 29.97 1015 10 16 0.00 0.00
3:53 am 03:53 Mostly Clear 66 18.9 60 15.6 81 81 SW 6 9 29.96 1015 10 16 0.00 0.00
4:53 am 04:53 Partly Cloudy 66 18.9 61 16.1 84 84 SSW 6 9 29.95 1014 10 16 0.00 0.00
5:53 am 05:53 Mostly Cloudy 67 19.4 61 16.1 81 81 SSW 3 6 29.95 1014 10 16 0.00 0.00
6:53 am 06:53 Cloudy 67 19.4 61 16.1 81 81 VRB 5 7 29.95 1014 10 16 0.00 0.00
7:53 am 07:53 Cloudy 69 20.6 61 16.1 76 76 S 5 7 29.96 1015 10 16 0.00 0.00
8:53 am 08:53 Cloudy 70 21.1 60 15.6 71 71 SSW 5 7 29.96 1015 10 16 0.00 0.00
9:53 am 09:53 Cloudy 72 22.2 60 15.6 66 66 SW 9 15 29.96 1014 10 16 0.00 0.00
10:53 am 10:53 Cloudy 74 23.3 60 15.6 62 62 SW 9 15 29.94 1014 10 16 0.00 0.00
11:53 am 11:53 Cloudy 74 23.3 59 15 60 60 SSW 7 11 29.93 1014 10 16 0.00 0.00
12:53 pm 12:53 Mostly Cloudy 77 25 59 15 54 54 SW 8 13 29.91 1013 10 16 0.00 0.00
1:53 pm 13:53 Cloudy 77 25 58 14.4 52 52 S 9 15 29.89 1012 10 16 0.00 0.00
2:53 pm 14:53 Cloudy with Light Rain 77 25 60 15.6 56 56 SW 6 9 29.88 1012 10 16 0.00 0.00
3:53 pm 15:53 Cloudy with Light Rain 72 22.2 63 17.2 73 73 W 5 7 29.89 1012 6 10 0.03 0.76
4:53 pm 16:53 Cloudy 74 23.3 66 18.9 76 76 VRB 3 6 29.86 1011 10 16 0.00 0.00
5:53 pm 17:53 Cloudy 74 23.3 63 17.2 69 69 SSW 5 7 29.85 1011 10 16 0.00 0.00
6:53 pm 18:53 Cloudy 76 24.4 63 17.2 64 64 S 7 11 29.83 1010 10 16 0.00 0.00
7:53 pm 19:53 Cloudy 75 23.9 63 17.2 66 66 Calm 29.83 1010 10 16 0.00 0.00
8:53 pm 20:53 Cloudy with Nearby Thunderstorms 76 24.4 63 17.2 64 64 SSW 7 11 29.83 1010 10 16 0.00 0.00
9:13 pm 21:13 Mostly Cloudy with Light Rain 75 23.9 64 17.8 69 69 SW 7 11 29.82 1010 4 6 0.01 0.25
9:22 pm 21:22 Mostly Cloudy with Thunderstorms 74 23.3 65 18.3 74 74 SSW 7 11 29.81 1009 7 11 0.02 0.51
9:53 pm 21:53 Cloudy with Light Rain 72 22.2 65 18.3 79 79 S 14 22 29.79 1009 8 13 0.07 1.78
10:13 pm 22:13 Cloudy with Light Rain 71 21.7 65 18.3 81 81 W 15 24 29.80 1009 10 16 0.00 0.00
10:53 pm 22:53 Cloudy 67 19.4 62 16.7 84 84 WSW 10 17 29.85 1011 10 16 0.00 0.00
11:53 pm 23:53 Mostly Cloudy 65 18.3 61 16.1 87 87 SW 6 9 29.85 1011 10 16 0.00 0.00

Powered by AerisWeather